SCP
2 2 2 1 1 1 1 1 0 0 0 0 0 0 0 0 0 0 0 0 0 1 1 1 1 1 1 2 2 2 2 2 2 2 2 2 2 1 1 1 1 1 1
2 2 2 1 1 1 1 1 0 0 0 0 0 0 0 0 0 0 0 0 0 1 1 1 1 1 1 2 2 2 2 2 2 2 2 2 2 2 1 1 1 1 1
1 2 2 2 1 1 1 1 0 0 0 0 0 0 0 0 0 0 0 0 0 0 1 1 1 2 2 1 2 2 2 2 2 2 2 2 2 2 2 1 1 1 1
1 1 2 2 2 1 1 0 0 0 0 0 0 0 0 0 0 0 0 0 0 0 1 1 1 2 2 2 2 2 2 3 3 3 3 3 2 2 2 2 1 1 1
1 1 1 1 1 1 0 0 0 0 0 0 0 0 0 0 0 0 0 0 0 0 0 1 1 1 1 2 2 2 2 3 4 4 3 3 3 2 2 2 2 2 1
1 1 1 1 1 1 0 0 0 0 0 0 0 0 0 0 0 0 0 0 1 0 0 0 0 1 1 1 1 2 2 2 3 4 4 3 3 3 2 1 2 2 2
1 1 1 1 1 0 0 0 0 0 0 0 0 0 0 0 0 0 0 1 1 1 0 0 0 0 1 1 1 1 2 2 2 3 3 4 3 3 2 1 1 1 1
1 1 1 1 1 0 0 0 0 0 0 0 0 0 0 0 0 0 0 1 1 1 0 0 0 0 0 0 1 1 1 2 2 2 3 3 3 3 2 1 1 1 1
1 1 1 1 1 1 1 1 1 1 0 0 0 0 0 0 0 0 0 0 1 0 0 0 0 0 1 0 0 1 1 2 2 2 2 2 3 3 2 2 1 1 1
1 1 1 1 1 1 1 1 1 1 1 1 1 0 0 0 0 0 0 0 0 0 0 0 0 1 1 1 1 1 1 1 1 1 1 2 2 3 3 2 2 1 1
1 1 1 1 1 1 1 1 1 1 1 1 1 0 0 0 0 0 0 0 0 0 0 0 1 1 1 1 1 1 1 1 1 2 2 2 2 2 2 2 2 1 1
0 1 1 1 1 1 1 1 1 1 1 1 1 1 0 0 0 0 0 0 0 0 0 0 1 1 1 1 1 1 0 0 1 2 2 2 2 2 2 2 1 1 1
0 0 1 1 1 1 1 0 1 1 1 1 1 1 1 0 0 0 0 0 0 0 0 0 0 1 1 1 1 0 0 1 1 2 2 2 1 1 1 1 1 1 1
0 0 0 1 1 1 1 0 0 0 1 1 1 1 1 0 0 0 0 0 0 0 0 0 0 1 1 1 0 0 0 1 1 1 1 1 1 1 1 1 1 1 1
0 0 0 0 0 1 1 0 0 0 0 1 1 1 1 0 0 0 0 0 0 0 0 0 0 0 1 0 0 0 0 0 1 1 1 0 0 1 1 1 1 1 1
0 0 0 0 0 0 0 0 0 0 0 0 0 0 0 0 0 0 0 0 0 0 0 0 0 0 0 0 0 0 0 0 0 0 0 0 0 0 0 0 0 0 0
1 1 1 0 0 0 0 0 0 0 0 0 0 0 0 0 0 0 0 0 0 0 0 0 0 0 0 0 0 0 0 0 0 0 0 0 0 0 0 0 0 0 0
1 1 1 1 0 0 0 0 0 0 0 0 0 0 0 0 0 0 0 0 0 0 0 0 0 0 0 0 0 0 0 0 0 0 0 0 0 0 0 0 0 0 0
1 1 1 1 0 0 0 0 0 0 0 0 0 0 0 0 0 0 0 0 0 0 0 0 0 0 0 0 0 0 0 0 0 0 0 0 0 0 0 0 0 0 0
0 0 0 0 0 1 1 1 1 1 0 0 0 0 0 0 0 0 0 0 0 0 0 0 0 0 0 0 0 0 0 0 0 0 0 0 0 0 0 0 0 0 0
0 0 0 0 0 1 1 1 1 1 0 0 0 0 0 0 0 0 0 0 0 0 0 0 0 0 0 0 0 0 0 0 0 0 0 0 0 0 0 0 0 0 0
0 0 0 0 0 0 0 0 0 0 0 0 0 0 0 0 0 0 0 0 0 0 0 0 0 0 0 0 0 0 0 0 0 0 0 0 0 0 0 0 0 0 0
0 0 0 0 0 0 0 0 0 0 0 0 0 0 0 0 0 0 0 0 0 0 0 0 0 0 0 0 0 0 0 0 0 0 0 0 0 0 0 0 0 0 0
0 0 0 0 0 0 0 0 0 0 0 0 0 0 0 0 0 0 0 0 0 0 0 0 0 0 0 0 0 0 0 0 0 0 0 0 0 0 0 0 0 0 0
0 0 0 0 0 0 0 0 0 0 0 0 0 0 0 0 0 0 0 0 0 0 0 0 0 0 0 0 0 0 0 0 0 0 0 0 0 0 0 0 0 0 0
0 0 0 0 0 0 0 0 0 0 0 0 0 0 0 0 0 0 0 0 0 0 0 0 0 0 0 0 0 0 0 0 0 0 0 0 0 0 0 0 0 0 0
Wind_Speed
5 5 4 4 4 3 3 3 2 3 2 2 2 3 3 3 3 3 3 6 7 7 8 8 8 7 7 6 6 5 4 4 3 3 3 3 3 2 3 3 3 3 3
5 5 5 5 4 4 3 3 3 3 2 2 2 3 3 3 3 4 3 4 6 7 8 8 8 8 8 7 7 6 5 5 4 3 3 2 2 2 2 3 3 3 3
7 6 5 5 5 4 4 3 3 2 2 2 3 3 3 4 4 4 4 3 3 6 7 9 8 8 7 8 8 7 6 5 5 4 4 3 3 3 3 3 4 4 4
7 6 5 5 5 5 4 4 3 3 2 2 3 3 3 3 4 4 3 3 3 3 5 7 7 7 7 8 8 8 7 6 5 5 4 4 4 4 4 4 4 4 5
8 6 5 5 5 4 4 4 3 3 3 3 3 3 2 3 3 4 4 4 4 4 3 4 6 6 7 8 8 8 7 7 6 6 5 5 5 4 4 4 4 5 5
7 6 5 5 5 5 4 4 4 3 3 2 2 2 2 3 3 4 5 4 4 4 4 4 4 4 6 7 8 8 8 8 7 7 6 5 5 4 5 4 5 5 5
6 6 5 6 6 5 5 5 4 4 2 2 1 1 2 2 3 4 4 3 4 4 4 4 3 3 3 6 7 8 8 8 8 8 7 6 5 5 5 5 5 5 5
4 5 5 5 6 5 5 5 4 3 2 3 2 1 2 2 3 4 4 4 5 3 4 5 4 4 3 3 4 7 7 8 9 8 8 7 6 5 5 5 5 5 6
3 3 5 5 5 5 5 6 6 6 4 4 3 3 2 4 2 2 4 4 4 4 4 4 5 5 5 4 3 5 6 7 9 9 8 8 6 5 5 4 4 4 5
2 3 4 5 5 4 5 6 6 5 5 4 3 3 3 2 2 3 2 3 3 4 5 4 5 5 5 4 4 5 5 6 8 9 9 8 6 5 4 3 3 3 4
2 2 3 4 4 4 5 5 5 5 5 5 4 3 3 2 3 3 4 3 3 3 4 4 4 3 4 4 4 4 6 6 8 8 8 7 6 5 4 3 2 2 3
2 3 3 4 4 4 5 5 6 6 6 6 5 4 4 3 4 3 4 4 4 3 3 3 3 3 3 4 4 5 6 6 7 7 7 6 4 3 2 1 0 1 3
1 1 2 3 4 4 4 4 5 6 6 6 7 6 5 5 3 3 4 4 4 3 3 3 3 3 3 3 4 6 6 6 6 6 5 4 2 1 1 1 1 2 3
1 2 2 3 4 5 5 5 5 5 5 6 7 6 5 5 4 4 4 3 4 3 4 5 2 3 3 3 4 6 4 5 5 5 4 3 3 2 2 2 2 2 4
1 1 2 2 2 3 4 4 4 6 5 6 6 6 5 5 4 4 4 4 5 6 6 5 3 3 3 3 4 4 3 5 5 5 4 3 3 3 3 2 2 2 3
2 2 2 3 3 3 3 3 4 5 5 5 4 5 5 4 4 4 4 5 5 5 6 3 3 2 3 3 4 3 4 5 5 5 5 4 4 4 3 2 2 3 4
2 2 3 3 3 3 3 3 3 4 5 5 4 5 6 5 4 4 4 4 4 4 5 3 1 1 3 4 3 3 3 3 3 5 5 5 5 4 3 2 2 3 4
2 3 3 2 3 3 3 4 4 4 5 5 5 5 6 4 5 4 4 5 5 4 4 4 2 2 2 4 4 4 3 2 2 4 6 5 5 4 3 2 2 3 4
2 2 2 2 3 3 3 4 4 4 5 5 5 5 5 4 5 4 4 4 3 2 2 2 2 1 1 3 3 3 3 2 2 2 4 4 5 4 3 2 2 3 3
2 2 2 2 2 3 3 3 3 4 4 4 5 5 5 5 5 5 4 4 3 2 2 2 2 2 2 3 4 3 3 2 1 1 2 2 3 3 3 2 3 3 3
4 3 2 2 2 2 2 3 3 3 3 4 4 4 4 5 5 4 3 3 3 2 2 3 3 2 3 4 4 3 3 2 1 1 1 1 1 2 1 2 3 3 4
4 4 3 3 3 3 4 5 4 2 3 3 4 4 3 4 4 4 4 4 3 4 4 4 3 4 4 4 4 4 4 3 1 1 2 1 1 1 1 1 1 3 4
4 4 4 3 4 4 6 6 6 3 3 3 4 4 3 3 3 3 3 2 2 3 4 5 5 5 5 6 7 6 4 3 2 2 2 1 1 1 1 1 1 2 3
4 4 4 4 4 5 8 8 6 3 3 4 4 4 4 3 3 2 2 1 1 1 1 2 3 4 4 6 6 6 6 5 3 2 2 2 1 1 1 1 2 2 3
4 4 4 4 4 6 8 8 7 2 3 4 3 3 3 3 3 2 2 2 1 1 2 4 4 5 7 9 9 7 6 5 2 1 1 2 1 1 1 1 3 3 3
4 4 4 4 4 5 8 9 8 2 3 3 3 2 3 3 3 2 2 3 2 1 2 3 5 6 6 7 8 5 6 5 3 2 2 2 2 2 1 1 2 2 2
Wind_Direction
170 166 168 167 168 165 168 167 168 175 186 189 197 199 211 218 222 224 237 231 233 234 231 229 229 230 231 229 227 224 227 234 243 244 240 244 252 270 289 295 292 299 304
174 174 174 175 179 177 177 178 178 183 196 202 219 220 224 225 227 227 231 236 234 236 238 237 239 238 239 238 234 232 231 232 237 243 242 252 256 268 278 286 291 294 299
177 177 182 185 187 179 174 172 171 174 194 213 229 230 229 230 230 230 229 229 231 234 238 241 243 244 246 245 243 238 232 233 234 238 237 248 260 271 275 285 290 289 291
177 177 184 189 182 176 176 180 180 186 204 214 233 236 229 228 232 232 230 230 228 230 234 240 244 248 249 250 250 242 236 227 225 227 234 246 249 263 277 289 298 295 291
181 178 183 186 177 178 182 189 188 186 203 216 228 238 235 234 234 231 229 230 228 225 224 234 234 241 245 246 248 243 234 227 222 222 231 242 243 252 271 283 293 292 294
184 180 178 182 179 183 187 191 193 198 202 204 233 260 260 249 239 232 231 231 227 226 224 224 229 239 239 242 245 246 241 233 226 222 227 235 240 252 267 275 287 288 289
184 185 185 184 185 190 194 192 190 197 201 160 145 285 280 244 238 238 232 229 228 226 223 222 221 225 240 241 241 243 243 237 233 229 229 232 241 254 267 275 286 291 287
189 190 190 188 188 189 193 195 185 187 193 177 168 215 278 283 246 232 228 225 228 219 222 225 220 222 222 224 236 234 240 239 239 236 230 230 238 252 257 269 286 295 289
190 196 200 193 190 189 198 202 196 192 200 202 192 184 205 241 280 244 227 229 225 225 227 223 222 221 218 215 219 227 228 231 237 238 234 232 235 245 250 262 283 298 302
193 207 209 197 194 195 200 205 203 206 199 206 216 221 225 211 236 271 260 232 222 229 229 229 224 221 215 210 215 217 220 223 233 240 239 234 235 233 244 255 275 302 321
217 219 223 209 204 204 208 208 207 209 207 210 210 215 233 245 237 239 265 264 248 236 232 227 217 219 221 213 209 209 214 221 229 237 239 239 239 235 242 250 273 308 328
213 215 220 216 212 211 211 215 214 214 216 219 223 220 215 214 224 228 251 263 261 257 245 235 217 213 218 214 213 209 209 218 228 233 237 237 233 234 230 210 283 341 342
254 253 237 223 219 219 219 216 219 222 221 223 227 231 230 232 227 231 240 256 264 266 251 245 224 212 214 211 208 209 208 211 219 223 231 222 184 186 167 72 24 350 343
262 254 248 235 227 222 222 219 226 228 225 228 235 238 241 240 230 228 226 230 255 258 245 244 229 217 213 207 210 200 201 197 201 203 198 177 143 141 132 79 31 355 351
283 269 264 266 254 236 232 228 231 233 232 233 237 239 246 250 243 240 232 217 222 245 247 229 222 215 208 196 204 193 187 185 186 177 160 150 145 136 115 82 36 0 354
316 290 274 266 265 249 235 232 240 238 235 237 239 245 250 255 250 245 237 230 228 234 249 230 223 211 193 191 197 181 175 168 169 164 155 149 137 126 107 70 22 5 356
297 281 266 262 263 255 239 232 238 246 242 241 243 241 247 248 247 248 243 238 233 230 247 257 229 202 181 177 169 149 145 145 155 160 151 144 141 132 113 72 19 11 356
281 267 264 264 276 273 257 242 243 246 247 245 243 246 254 253 248 244 239 245 242 232 230 239 229 181 176 175 155 148 137 126 137 154 146 145 141 131 114 77 34 17 2
287 271 266 267 269 271 266 258 256 253 252 250 246 245 251 252 256 256 250 244 246 247 234 212 208 156 148 148 137 125 113 102 98 131 136 144 143 129 110 81 51 22 14
325 312 301 288 282 281 272 269 265 264 266 267 258 250 249 245 246 245 245 241 236 229 205 184 174 153 137 138 144 145 130 115 106 95 116 117 127 117 100 71 48 28 26
351 353 344 330 318 302 290 288 275 269 271 279 274 260 255 259 260 256 252 240 225 222 202 179 171 158 155 159 167 152 148 121 90 106 101 82 89 83 69 50 41 36 38
356 2 357 343 333 322 326 325 319 290 280 278 280 277 270 250 254 269 271 258 239 229 217 194 184 180 176 164 149 148 139 136 169 161 124 97 91 103 53 7 30 54 57
357 356 351 347 337 328 335 332 331 316 292 277 272 271 274 271 267 244 256 261 257 255 228 203 191 184 172 171 158 152 151 146 151 144 119 124 89 94 20 352 20 60 74
350 343 342 340 339 336 344 342 335 314 291 279 270 261 256 260 255 249 227 228 260 276 219 195 185 179 166 160 159 149 137 114 87 71 104 127 113 83 26 4 4 59 91
346 340 335 339 337 330 337 339 341 303 289 286 277 266 254 252 260 255 197 200 219 344 59 106 115 126 138 143 141 128 133 135 129 139 115 127 130 85 48 21 6 35 78
337 336 341 339 329 322 334 342 344 317 307 303 301 290 276 267 266 236 199 187 192 201 125 104 97 104 115 133 141 147 150 147 135 156 166 133 132 113 82 4 12 17 39